www.pogodaiklimat.ru

Погода и климат >> Архив погоды >> Таиланд >> Вичан Бури


ПОГОДА в Вичан Бури

  • Прогноз погоды в Вичан Бури
  • Монитор погоды в Вичан Бури

АРХИВ ПОГОДЫ в Вичан Бури

Время (UTC), дата Ветер
(напр.,м/с)
 
Видим.   Явления Облачность Т
(С)
Тd
(С)
f
(%)
Тe
(С)
Тes
(С)
Комфортность P
(гПа)
Po
(гПа)
Тmin
(С)
Tmax
(С)
R
(мм)
R24
(мм)
S
(см)
21 16.05 штиль 0 7000 м дымка 3/1 600 м
[Cu med, cong Cs]
+26.6 +24.3 87 +37 +37 очень
душно
1006.5 998.6
00 17.05 штиль 0 8000 м дымка 9/4 600 м
[Cu Sc Ac trans Cs]
+27.2 +25.2 89 +39 +40 очень
душно
1007.8 999.9 +25.4
03 17.05 штиль 0 10 км 6/4 600 м
[Cu Sc Cs]
+31.3 +24.1 66 +43 +55 опасность
перегрева
1008.4 1000.5
06 17.05 штиль 0 10 км 4/3 600 м
[Cu Sc Cs]
+34.8 +24.8 56 +48 +67 опасность
перегрева
1006.4 998.7
09 17.05 ЮЗ 4 10 км 3/3 600 м
[Cu med, cong Cs]
+36.3 +21.9 43 +44 +48 опасность
перегрева
1003.4 995.7
12 17.05 штиль 0 10 км 3/3 600 м
[Cu med, cong Cs]
+33.4 +23.3 56 +44 +44 опасность
перегрева
1004.0 996.3 +36.4
15 17.05 штиль 0 10 км 3/3 600 м
[Cu med, cong Cs]
+30.4 +24.4 70 +42 +42 опасность
перегрева
1005.8 997.9
18 17.05 штиль 0 7000 м дымка 3/0
[Cs]
+28.8 +24.5 78 +41 +41 опасность
перегрева
1005.6 997.7
21 17.05 штиль 0 7000 м дымка 3/0
[Cs]
+27.8 +25.4 87 +41 +41 опасность
перегрева
1005.1 997.2
00 18.05 штиль 0 10 км 3/0
[Cs]
+28.7 +24.8 79 +41 +43 опасность
перегрева
1006.8 998.9 +27.5
03 18.05 штиль 0 10 км 3/1 600 м
[Cu med, cong Cs]
+33.0 +23.0 56 +43 +62 опасность
перегрева
1007.6 999.8
06 18.05 Ю 4 10 км 3/1 600 м
[Cu med, cong Cs]
+36.5 +22.0 43 +45 +57 опасность
перегрева
1004.7 997.0
09 18.05 штиль 0 10 км 4/3 600 м
[Cu med, cong Cs]
+37.2 +22.1 42 +46 +53 опасность
перегрева
1002.4 994.7
12 18.05 штиль 0 10 км 3/0
[Cs]
+34.5 +23.0 51 +44 +44 опасность
перегрева
1003.3 995.6 +37.0
15 18.05 штиль 0 8000 м дымка 3/0
[Cs]
+30.5 +24.0 68 +42 +42 опасность
перегрева
1005.9 998.1
18 18.05 штиль 0 8000 м дымка 3/0
[Cs]
+29.5 +24.5 75 +42 +42 опасность
перегрева
1005.5 997.6
21 18.05 штиль 0 7000 м дымка 3/0
[Cs]
+28.5 +24.9 81 +41 +41 опасность
перегрева
1005.1 997.2
00 19.05 штиль 0 10 км 3/0
[Cs]
+29.5 +24.5 75 +42 +44 опасность
перегрева
1007.4 999.5 +28.3
03 19.05 штиль 0 10 км 3/0
[Cs]
+33.8 +23.3 54 +44 +64 опасность
перегрева
1008.8 1001.0
06 19.05 штиль 0 10 км 3/1 600 м
[Cu med, cong Cs]
+37.0 +22.1 42 +45 +70 опасность
перегрева
1006.1 998.5
09 19.05 ЮВ 2 10 км 3/1 600 м
[Cu med, cong Cs]
+38.9 +22.5 39 +47 +54 опасность
перегрева
1003.3 995.7
12 19.05 штиль 0 10 км 3/0
[Cs]
+35.5 +22.5 47 +45 +45 опасность
перегрева
1003.9 996.2 +39.2
15 19.05 штиль 0 7000 м мгла 3/0
[Cs]
+31.6 +23.5 62 +42 +42 опасность
перегрева
1006.9 999.1
18 19.05 штиль 0 7000 м дымка 3/0
[Cs]
+29.5 +24.5 75 +42 +42 опасность
перегрева
1006.8 998.9
21 19.05 штиль 0 7000 м дымка 3/0
[Cs]
+28.6 +24.6 79 +41 +41 опасность
перегрева
1006.3 998.4
00 20.05 штиль 0 10 км 3/0
[Cs]
+29.5 +25.2 78 +43 +45 опасность
перегрева
1007.6 999.7 +27.3
03 20.05 З 3 10 км 3/1 600 м
[Cu med, cong Cs]
+34.5 +26.2 62 +51 +62 опасность
перегрева
1008.8 1001.0
06 20.05 ЮВ 5 10 км 3/3 600 м
[Cu med, cong Cs]
+38.0 +23.8 44 +49 +56 опасность
перегрева
1006.4 998.8
09 20.05 ЮВ 7 10 км 3/3 300 м
[Cb cap Cs]
+38.0 +23.8 44 +49 +50 опасность
перегрева
1003.5 995.8
12 20.05 ЮВ 4 9000 м мгла 3/3 300 м
[Cb cap Cs]
+34.0 +24.8 59 +47 +47 опасность
перегрева
1004.9 997.2 +39.5
15 20.05 штиль 0 8000 м мгла 3/0
[Cs]
+32.3 +22.4 56 +42 +42 опасность
перегрева
1007.1 999.3
18 20.05 штиль 0 8000 м дымка 3/0
[Cs]
+30.0 +23.2 67 +40 +40 очень
душно
1007.3 999.4
21 20.05 штиль 0 8000 м дымка 3/0
[Cs]
+28.7 +24.1 76 +40 +40 очень
душно
1006.8 998.9
00 21.05 штиль 0 10 км 3/0
[Cs]
+29.0 +23.9 74 +40 +42 очень
душно
1008.0 1000.1 +28.0
03 21.05 штиль 0 10 км 3/0
[Cs]
+33.5 +25.8 64 +49 +69 опасность
перегрева
1008.7 1000.9
06 21.05 З 4 10 км 3/3 600 м
[Cu med, cong Cs]
+37.5 +23.2 44 +47 +58 опасность
перегрева
1006.6 998.9
09 21.05 З 3 10 км 5/4 300 м
[Cb cap Cs]
+32.5 +25.5 67 +47 +51 опасность
перегрева
1004.0 996.2
12 21.05 С 5 9000 м дымка {гроза} 10/4 300 м
[Cb cap Ac As Cs]
+29.5 +24.5 75 +42 +42 опасность
перегрева
1006.2 998.4 +38.8 5
15 21.05 штиль 0 8000 м дымка 8/3 600 м
[Cu Sc Ac und Cs]
+30.0 +24.3 72 +42 +42 опасность
перегрева
1007.4 999.6
18 21.05 штиль 0 8000 м дымка 9/3 600 м
[Cu Sc Ac und Cs]
+29.3 +24.6 76 +42 +42 опасность
перегрева
1009.6 1001.7
21 21.05 штиль 0 8000 м дымка {гроза} 10/4 300 м
[Cb cap Ac As Cs]
+26.0 +22.3 80 +34 +34 очень
душно
1008.7 1000.7
00 22.05 штиль 0 8000 м {гроза} 10/4 600 м
[Sc Ac und Cs]
+25.0 +16.6 60 +29 +29 душно 1008.3 1000.3 +24.7 5
03 22.05 штиль 0 10 км 10/4 600 м
[Cu Sc Ac und Cs]
+27.7 +23.5 78 +38 +44 очень
душно
1010.6 1002.6
06 22.05 В 3 10 км 6/3 600 м
[Cu Sc Cs]
+32.2 +23.4 60 +43 +54 опасность
перегрева
1008.3 1000.5
09 22.05 штиль 0 10 км 6/3 600 м
[Cu med, cong Cs]
+33.4 +23.2 55 +44 +51 опасность
перегрева
1005.1 997.3
12 22.05 штиль 0 10 км зарница 6/4 300 м
[Cb cap Ac und Cs]
+31.8 +23.9 63 +43 +43 опасность
перегрева
1006.3 998.5 +37.3
15 22.05 штиль 0 10 км 4/3 600 м
[Cu med, cong Cs]
+28.8 +23.7 74 +39 +39 очень
душно
1008.6 1000.7
18 22.05 штиль 0 8000 м дымка 4/3 600 м
[Cu med, cong Cs]
+26.8 +23.7 83 +37 +37 очень
душно
1009.1 1001.1
21 22.05 штиль 0 8000 м дымка 6/3 600 м
[Cu Sc Cs]
+26.2 +24.0 88 +36 +36 очень
душно
1007.9 1000.0
00 23.05 штиль 0 10 км 4/3 600 м
[Cu med, cong Ac trans Cs]
+26.8 +25.4 92 +39 +40 очень
душно
1008.8 1000.8 +25.4
03 23.05 В 3 10 км 3/3 600 м
[Cu med, cong Cs]
+32.3 +22.5 56 +42 +51 опасность
перегрева
1010.1 1002.2
06 23.05 В 6 10 км 6/4 600 м
[Cu Sc Cs]
+35.7 +22.9 48 +46 +50 опасность
перегрева
1007.2 999.5
09 23.05 ЮЗ 8 10 км гроза, ливневой дождь 8/5 300 м
[Cb cap Cs]
+25.7 +23.3 87 +35 +35 очень
душно
1005.3 997.3 6
12 23.05 ЮВ 5 8000 м гроза, ливневой дождь 10/6 300 м
[Cb cap Ac und Cs]
+26.4 +23.9 86 +36 +36 очень
душно
1008.6 1000.7 +36.5 3
15 23.05 штиль 0 7000 м гроза, ливневой дождь 10/5 300 м
[Cb cap Ac und Cs]
+25.2 +23.9 93 +35 +35 очень
душно
1010.4 1002.4 4
18 23.05 штиль 0 7000 м дымка {гроза} 10/5 600 м
[Cu Sc Ac und Cs]
+25.7 +24.8 95 +36 +36 очень
душно
1009.0 1001.0 12

 

Местоположение метеостанции Вичан Бури (Таиланд): широта 15.63 долгота 101.11 высота над уровнем моря 69 м.

В архиве по умолчанию представлена погода в Вичан Бури за последнюю неделю. Архивные данные за месяц целиком и за предыдущие месяцы, начиная с января 2011 года, Вы можете получить, выбрав интересующий диапазон дат из раскрывающегося списка и нажав кнопку "Ввод!".


*Определитесь, кто Вы:
робот инопланетянин человек

Внимание! Время в таблицах - всемирное. Для получения местного времени необходимо прибавить поправку, которая равна 7 ч.

Смотрите также архив погоды в соседних городах и на ближайших метеорологических станциях:

Погода в Буа Чум (Таиланд) (41 км)
Погода в Лаем-Чабанге (Таиланд) (66 км)
Погода в Такфа Агромете (Таиланд) (72 км)
Погода в Пхетчабуне (Таиланд) (89 км)
Погода в Чайяпхуме (Таиланд) (100 км)
Погода в Накхон Саван (Таиланд) (103 км)
Погода в Лопбури (Таиланд) (107 км)
Погода в Чайнат Агромете (Таиланд) (113 км)
Погода в Пакчонг Агромете (Таиланд) (113 км)
Погода в Утай Тани (Таиланд) (118 км)

Пояснения к столбцам:

Ветер - указаны скорость ветра в м/с - средняя за 10 мин, порывы в срок и между сроками (в фигурных скобках) и направление, откуда дует ветер: С - северный, СВ - северо-восточный, В - восточный, ЮВ - юго-восточный, Ю - южный, ЮЗ - юго-западный, З - западный, СЗ - северо-западный.
Видимость - горизонтальная дальность видимости в метрах или километрах. При видимости от 1 до 10 км при отсутствии осадков обычно наблюдается дымка, при ухудшении видимости до 1 км и менее - туман. В сухую погоду видимость может ухудшаться дымом, пылью или мглою.
Явления - указаны атмосферные явления, наблюдавшиеся в срок или в последний час перед сроком; фигурными скобками обозначены явления, наблюдавшиеся между сроками (за 1-3 часа до срока); квадратными скобками обозначены град или гололедные отложения с указанием их диаметра в мм.
Облачность - указаны через наклонную черту общая и нижняя облачность в баллах и высота нижней границы облаков в метрах; квадратными скобками обозначены формы облаков: Ci - перистые, Cs - перисто-слоистые, Cc - перисто-кучевые, Ac - высококучевые, As - высокослоистые, Sc - слоисто-кучевые, Ns - слоисто-дождевые, Cu - кучевые, Cb - кучево-дождевые. Подробнее классификацию облаков см. в Атласе облаков (PDF).
T - Температура воздуха - температура, измеренная на высоте 2 м над землей.
Td - Температура точки росы - температура, при понижении до которой содержащийся в воздухе водяной пар достигнет насыщения.
f - Относительная влажность воздуха - влажноcть воздуха, измеренная на высоте 2 м над землей.
Te - Эффективная температура - температура, которую ощущает одетый по сезону человек в тени. Характеристика душности погоды. При расчете учитывается влияние влажности воздуха и скорости ветра на теплоощущения человека.
Tes - Эффективная температура на солнце - температура, которую ощущает человек, с поправкой на солнечный нагрев. Характеристика знойности погоды. Зависит от высоты солнца над горизонтом, облачности и скорости ветра. Ночью, в пасмурную погоду, а также при ветре 12 м/с и более поправка равна нулю.
P - Атмосферное давление - приведенное к уровню моря атмосферное давление.
Po - Атмосферное давление - измеренное на уровне метеостанции атмосферное давление.
Tmin - Минимальная температура - минимум температуры воздуха на высоте 2 м над землей.
Tmax - Максимальная температура - максимум температуры воздуха на высоте 2 м над землей.
R - Количество осадков - Количество выпавших осадков за период времени, мм. При наведении курсора мыши на число - период времени, за который выпало указанное количество осадков.
R24 - Количество осадков - Количество выпавших осадков за 24 часа, мм.
S - Снежный покров - Высота снежного покрова, см. При наведении курсора мыши на число - состояние снежного покрова и степень покрытия местности в баллах.